| time (UTC) | temp C | wind direction | speed KPH | gust KPH | rain 1hr cm | rain 24hr cm | rain mn cm | humidity % | barometer mb |
| 20260505041527 | 14 | 227 | 9.7 | 25.7 | 0.00 | 0.00 | 0.00 | 52 | 1013.9 |
| 20260505041026 | 15 | 149 | 9.7 | 24.1 | 0.00 | 0.00 | 0.00 | 52 | 1013.9 |
| 20260505040525 | 15 | 192 | 9.7 | 29.0 | 0.00 | 0.00 | 0.00 | 52 | 1013.8 |
| 20260505040024 | 15 | 191 | 14.5 | 29.0 | 0.00 | 0.00 | 0.00 | 52 | 1014.0 |
| 20260505035523 | 15 | 174 | 11.3 | 27.4 | 0.00 | 0.00 | 0.00 | 51 | 1014.1 |
| 20260505035023 | 15 | 207 | 11.3 | 22.5 | 0.00 | 0.00 | 0.00 | 51 | 1014.1 |
| 20260505034523 | 14 | 198 | 8.0 | 24.1 | 0.00 | 0.00 | 0.00 | 51 | 1014.3 |
| 20260505034023 | 15 | 184 | 9.7 | 32.2 | 0.00 | 0.00 | 0.00 | 51 | 1014.3 |
| 20260505033526 | 14 | 134 | 12.9 | 32.2 | 0.00 | 0.00 | 0.00 | 51 | 1014.3 |
| 20260505033033 | 14 | 171 | 6.4 | 20.9 | 0.00 | 0.00 | 0.00 | 50 | 1014.3 |
| 20260505032522 | 15 | 150 | 8.0 | 22.5 | 0.00 | 0.00 | 0.00 | 50 | 1014.4 |
| 20260505032023 | 14 | 202 | 12.9 | 22.5 | 0.00 | 0.00 | 0.00 | 50 | 1014.5 |
| 20260505031523 | 14 | 237 | 6.4 | 16.1 | 0.00 | 0.00 | 0.00 | 50 | 1014.5 |
| 20260505031022 | 15 | 193 | 1.6 | 16.1 | 0.00 | 0.00 | 0.00 | 49 | 1014.6 |
| 20260505030521 | 15 | 167 | 3.2 | 14.5 | 0.00 | 0.00 | 0.00 | 49 | 1014.7 |
| 20260505030021 | 15 | 207 | 6.4 | 27.4 | 0.00 | 0.00 | 0.00 | 48 | 1014.8 |
| 20260505025525 | 15 | 189 | 11.3 | 27.4 | 0.00 | 0.00 | 0.00 | 48 | 1014.8 |
| 20260505025021 | 15 | 209 | 1.6 | 17.7 | 0.00 | 0.00 | 0.00 | 48 | 1015.0 |
| 20260505024546 | 15 | 203 | 6.4 | 17.7 | 0.00 | 0.00 | 0.00 | 48 | 1014.9 |
| 20260505024020 | 15 | 159 | 4.8 | 17.7 | 0.00 | 0.00 | 0.00 | 48 | 1014.9 |
| 20260505023520 | 15 | 264 | 3.2 | 9.7 | 0.00 | 0.00 | 0.00 | 48 | 1014.9 |
| 20260505023020 | 15 | 110 | 3.2 | 16.1 | 0.00 | 0.00 | 0.00 | 47 | 1014.9 |
| 20260505022520 | 15 | 193 | 8.0 | 16.1 | 0.00 | 0.00 | 0.00 | 47 | 1014.8 |
| 20260505022020 | 15 | 234 | 3.2 | 14.5 | 0.00 | 0.00 | 0.00 | 47 | 1014.8 |
| 20260505021538 | 15 | 213 | 3.2 | 19.3 | 0.00 | 0.00 | 0.00 | 47 | 1014.9 |
| 20260505021019 | 15 | 198 | 3.2 | 17.7 | 0.00 | 0.00 | 0.00 | 46 | 1014.9 |
| 20260505020622 | 15 | 165 | 3.2 | 19.3 | 0.00 | 0.00 | 0.00 | 46 | 1014.9 |
| 20260505020019 | 15 | 165 | 6.4 | 19.3 | 0.00 | 0.00 | 0.00 | 46 | 1014.8 |
| 20260505015521 | 15 | 193 | 3.2 | 16.1 | 0.00 | 0.00 | 0.00 | 46 | 1014.8 |
| 20260505015019 | 15 | 143 | 4.8 | 16.1 | 0.00 | 0.00 | 0.00 | 45 | 1014.9 |
| 20260505014523 | 15 | 207 | 3.2 | 12.9 | 0.00 | 0.00 | 0.00 | 45 | 1014.9 |
| 20260505014019 | 15 | 86 | 3.2 | 12.9 | 0.00 | 0.00 | 0.00 | 45 | 1014.7 |
| 20260505013518 | 15 | 208 | 1.6 | 9.7 | 0.00 | 0.00 | 0.00 | 45 | 1014.7 |
| 20260505013018 | 15 | 163 | 1.6 | 9.7 | 0.00 | 0.00 | 0.00 | 45 | 1014.7 |
| 20260505012519 | 15 | 171 | 3.2 | 14.5 | 0.00 | 0.00 | 0.00 | 45 | 1014.6 |
| 20260505012017 | 15 | 182 | 3.2 | 16.1 | 0.00 | 0.00 | 0.00 | 45 | 1014.6 |
| 20260505011518 | 15 | 218 | 4.8 | 14.5 | 0.00 | 0.00 | 0.00 | 45 | 1014.6 |
| 20260505011017 | 15 | 176 | 3.2 | 12.9 | 0.00 | 0.00 | 0.00 | 45 | 1014.6 |
| 20260505010516 | 15 | 127 | 4.8 | 24.1 | 0.00 | 0.00 | 0.00 | 45 | 1014.6 |
| 20260505010016 | 15 | 214 | 9.7 | 24.1 | 0.00 | 0.00 | 0.00 | 45 | 1014.5 |
| 20260505005516 | 15 | 203 | 3.2 | 9.7 | 0.00 | 0.00 | 0.00 | 46 | 1014.5 |
| 20260505005016 | 16 | 238 | 3.2 | 11.3 | 0.00 | 0.00 | 0.00 | 47 | 1014.5 |
| 20260505004524 | 16 | 145 | 4.8 | 12.9 | 0.00 | 0.00 | 0.00 | 47 | 1014.4 |
| 20260505004015 | 16 | 133 | 1.6 | 12.9 | 0.00 | 0.00 | 0.00 | 48 | 1014.4 |
| 20260505003616 | 16 | 188 | 6.4 | 14.5 | 0.00 | 0.00 | 0.00 | 47 | 1014.3 |
| 20260505003015 | 16 | 195 | 3.2 | 11.3 | 0.00 | 0.00 | 0.00 | 47 | 1014.2 |
| 20260505002515 | 16 | 95 | 4.8 | 12.9 | 0.00 | 0.00 | 0.00 | 47 | 1014.1 |
| 20260505002015 | 16 | 170 | 3.2 | 12.9 | 0.00 | 0.00 | 0.00 | 47 | 1014.1 |
| 20260505001515 | 16 | 153 | 4.8 | 14.5 | 0.00 | 0.00 | 0.00 | 46 | 1014.1 |
| 20260505001017 | 17 | 169 | 3.2 | 9.7 | 0.00 | 0.00 | 0.00 | 46 | 1014.1 |
| 20260505000513 | 17 | 113 | 3.2 | 17.7 | 0.00 | 0.00 | 0.00 | 45 | 1014.2 |
| 20260505000014 | 17 | 120 | 4.8 | 17.7 | 0.00 | 0.00 | 0.00 | 45 | 1014.1 |
| 20260504235513 | 17 | 217 | 8.0 | 17.7 | 0.00 | 0.00 | 0.00 | 44 | 1014.0 |
| 20260504235017 | 17 | 205 | 8.0 | 16.1 | 0.00 | 0.00 | 0.00 | 44 | 1014.0 |
| 20260504234517 | 17 | 180 | 8.0 | 17.7 | 0.00 | 0.00 | 0.00 | 44 | 1013.9 |
| 20260504234016 | 17 | 131 | 8.0 | 17.7 | 0.00 | 0.00 | 0.00 | 44 | 1013.9 |
| 20260504233513 | 18 | 126 | 4.8 | 16.1 | 0.00 | 0.00 | 0.00 | 44 | 1013.8 |
| 20260504233013 | 18 | 136 | 6.4 | 16.1 | 0.00 | 0.00 | 0.00 | 43 | 1013.9 |
| 20260504232513 | 18 | 168 | 6.4 | 16.1 | 0.00 | 0.00 | 0.00 | 44 | 1013.8 |
| 20260504232012 | 18 | 68 | 4.8 | 16.1 | 0.00 | 0.00 | 0.00 | 43 | 1013.8 |
| 20260504231512 | 18 | 207 | 3.2 | 12.9 | 0.00 | 0.00 | 0.00 | 43 | 1013.7 |
| 20260504231015 | 18 | 154 | 4.8 | 20.9 | 0.00 | 0.00 | 0.00 | 42 | 1013.8 |
| 20260504230512 | 18 | 165 | 8.0 | 20.9 | 0.00 | 0.00 | 0.00 | 41 | 1013.6 |
| 20260504230012 | 18 | 198 | 4.8 | 14.5 | 0.00 | 0.00 | 0.00 | 41 | 1013.6 |
| 20260504225512 | 18 | 139 | 6.4 | 17.7 | 0.00 | 0.00 | 0.00 | 42 | 1013.5 |
| 20260504225012 | 18 | 180 | 8.0 | 17.7 | 0.00 | 0.00 | 0.00 | 41 | 1013.5 |
| 20260504224511 | 19 | 192 | 6.4 | 16.1 | 0.00 | 0.00 | 0.00 | 42 | 1013.6 |
| 20260504224010 | 19 | 139 | 6.4 | 17.7 | 0.00 | 0.00 | 0.00 | 42 | 1013.6 |
| 20260504223510 | 19 | 193 | 4.8 | 17.7 | 0.00 | 0.00 | 0.00 | 42 | 1013.7 |
| 20260504223011 | 19 | 169 | 6.4 | 14.5 | 0.00 | 0.00 | 0.00 | 41 | 1013.6 |
| 20260504222509 | 20 | 154 | 8.0 | 14.5 | 0.00 | 0.00 | 0.00 | 41 | 1013.5 |
| 20260504222014 | 20 | 214 | 6.4 | 20.9 | 0.00 | 0.00 | 0.00 | 40 | 1013.5 |
| 20260504221510 | 20 | 152 | 11.3 | 20.9 | 0.00 | 0.00 | 0.00 | 38 | 1013.6 |
| 20260504221009 | 20 | 204 | 8.0 | 14.5 | 0.00 | 0.00 | 0.00 | 38 | 1013.5 |
| 20260504220512 | 20 | 198 | 3.2 | 14.5 | 0.00 | 0.00 | 0.00 | 40 | 1013.5 |
| 20260504220009 | 20 | 174 | 4.8 | 14.5 | 0.00 | 0.00 | 0.00 | 39 | 1013.6 |
| 20260504215508 | 20 | 168 | 6.4 | 17.7 | 0.00 | 0.00 | 0.00 | 39 | 1013.5 |
| 20260504215007 | 20 | 205 | 11.3 | 22.5 | 0.00 | 0.00 | 0.00 | 38 | 1013.6 |
| 20260504214508 | 20 | 207 | 3.2 | 22.5 | 0.00 | 0.00 | 0.00 | 41 | 1013.6 |
| 20260504214009 | 20 | 188 | 1.6 | 20.9 | 0.00 | 0.00 | 0.00 | 40 | 1013.7 |
| 20260504213509 | 20 | 171 | 12.9 | 20.9 | 0.00 | 0.00 | 0.00 | 39 | 1013.8 |
| 20260504213007 | 20 | 142 | 4.8 | 17.7 | 0.00 | 0.00 | 0.00 | 41 | 1013.7 |
| 20260504212506 | 20 | 143 | 9.7 | 17.7 | 0.00 | 0.00 | 0.00 | 40 | 1013.9 |
| 20260504212005 | 20 | 156 | 3.2 | 16.1 | 0.00 | 0.00 | 0.00 | 41 | 1013.9 |
| 20260504211505 | 20 | 127 | 8.0 | 25.7 | 0.00 | 0.00 | 0.00 | 40 | 1014.0 |
| 20260504211005 | 20 | 93 | 9.7 | 25.7 | 0.00 | 0.00 | 0.00 | 40 | 1013.9 |
| 20260504210505 | 20 | 119 | 8.0 | 19.3 | 0.00 | 0.00 | 0.00 | 39 | 1013.9 |
| 20260504210006 | 21 | 145 | 8.0 | 22.5 | 0.00 | 0.00 | 0.00 | 39 | 1013.7 |
| 20260504205504 | 21 | 195 | 9.7 | 22.5 | 0.00 | 0.00 | 0.00 | 40 | 1013.9 |
| 20260504205004 | 20 | 142 | 4.8 | 17.7 | 0.00 | 0.00 | 0.00 | 39 | 1014.0 |
| 20260504204509 | 21 | 188 | 6.4 | 19.3 | 0.00 | 0.00 | 0.00 | 39 | 1013.9 |
| 20260504204002 | 21 | 180 | 4.8 | 19.3 | 0.00 | 0.00 | 0.00 | 39 | 1014.1 |
| 20260504203501 | 21 | 169 | 8.0 | 17.7 | 0.00 | 0.00 | 0.00 | 39 | 1014.2 |
| 20260504203100 | 21 | 213 | 4.8 | 20.9 | 0.00 | 0.00 | 0.00 | 41 | 1014.1 |
| 20260504202559 | 20 | 124 | 4.8 | 20.9 | 0.00 | 0.00 | 0.00 | 41 | 1014.2 |
| 20260504202100 | 20 | 160 | 8.0 | 19.3 | 0.00 | 0.00 | 0.00 | 40 | 1014.2 |
| 20260504201609 | 20 | 146 | 6.4 | 17.7 | 0.00 | 0.00 | 0.00 | 40 | 1014.2 |
| 20260504201058 | 20 | 226 | 3.2 | 12.9 | 0.00 | 0.00 | 0.00 | 40 | 1014.3 |
| 20260504200600 | 20 | 119 | 4.8 | 16.1 | 0.00 | 0.00 | 0.00 | 41 | 1014.3 |
| 20260504200109 | 20 | 145 | 4.8 | 16.1 | 0.00 | 0.00 | 0.00 | 41 | 1014.4 |
| 20260504195556 | 20 | 146 | 3.2 | 11.3 | 0.00 | 0.00 | 0.00 | 43 | 1014.4 |
| 20260504195055 | 19 | 131 | 1.6 | 14.5 | 0.00 | 0.00 | 0.00 | 43 | 1014.4 |
| 20260504194555 | 19 | 151 | 4.8 | 11.3 | 0.00 | 0.00 | 0.00 | 43 | 1014.5 |
| 20260504194059 | 19 | 126 | 4.8 | 16.1 | 0.00 | 0.00 | 0.00 | 42 | 1014.6 |
| 20260504193554 | 19 | 164 | 9.7 | 16.1 | 0.00 | 0.00 | 0.00 | 41 | 1014.7 |
| 20260504193054 | 19 | 85 | 6.4 | 14.5 | 0.00 | 0.00 | 0.00 | 41 | 1014.7 |
| 20260504192554 | 20 | 174 | 4.8 | 11.3 | 0.00 | 0.00 | 0.00 | 40 | 1014.9 |
| 20260504192052 | 20 | 141 | 1.6 | 11.3 | 0.00 | 0.00 | 0.00 | 40 | 1014.9 |
| 20260504191552 | 20 | 239 | 1.6 | 14.5 | 0.00 | 0.00 | 0.00 | 41 | 1015.0 |
| 20260504191052 | 20 | 190 | 4.8 | 11.3 | 0.00 | 0.00 | 0.00 | 39 | 1015.1 |
| 20260504190550 | 20 | 167 | 3.2 | 19.3 | 0.00 | 0.00 | 0.00 | 40 | 1015.2 |
| 20260504190048 | 20 | 344 | 6.4 | 19.3 | 0.00 | 0.00 | 0.00 | 41 | 1015.2 |
| 20260504185552 | 20 | 3 | 8.0 | 24.1 | 0.00 | 0.00 | 0.00 | 42 | 1015.2 |
| 20260504185051 | 20 | 323 | 9.7 | 24.1 | 0.00 | 0.00 | 0.00 | 42 | 1015.3 |
| 20260504184556 | 19 | 249 | 4.8 | 24.1 | 0.00 | 0.00 | 0.00 | 41 | 1015.3 |
| 20260504184047 | 20 | 16 | 6.4 | 17.7 | 0.00 | 0.00 | 0.00 | 42 | 1015.4 |
| 20260504183547 | 20 | 214 | 3.2 | 20.9 | 0.00 | 0.00 | 0.00 | 42 | 1015.4 |
| 20260504183046 | 19 | 268 | 4.8 | 33.8 | 0.00 | 0.00 | 0.00 | 44 | 1015.5 |
| 20260504182546 | 18 | 152 | 9.7 | 33.8 | 0.00 | 0.00 | 0.00 | 43 | 1015.6 |
| 20260504182044 | 19 | 236 | 4.8 | 20.9 | 0.00 | 0.00 | 0.00 | 44 | 1015.8 |
| 20260504181546 | 19 | 247 | 8.0 | 19.3 | 0.00 | 0.00 | 0.00 | 42 | 1015.9 |
| 20260504181043 | 18 | 286 | 4.8 | 24.1 | 0.00 | 0.00 | 0.00 | 44 | 1016.0 |
| 20260504180544 | 18 | 121 | 6.4 | 24.1 | 0.00 | 0.00 | 0.00 | 43 | 1016.1 |
| 20260504180041 | 19 | 138 | 8.0 | 20.9 | 0.00 | 0.00 | 0.00 | 43 | 1016.1 |
| 20260504175541 | 18 | 350 | 6.4 | 22.5 | 0.00 | 0.00 | 0.00 | 43 | 1016.1 |
| 20260504175043 | 18 | 189 | 9.7 | 22.5 | 0.00 | 0.00 | 0.00 | 42 | 1016.2 |
| 20260504174541 | 19 | 278 | 6.4 | 25.7 | 0.00 | 0.00 | 0.00 | 42 | 1016.1 |
| 20260504174041 | 19 | 134 | 8.0 | 25.7 | 0.00 | 0.00 | 0.00 | 41 | 1016.2 |
| 20260504173539 | 18 | 243 | 3.2 | 14.5 | 0.00 | 0.00 | 0.00 | 41 | 1016.2 |
| 20260504173039 | 18 | 164 | 4.8 | 17.7 | 0.00 | 0.00 | 0.00 | 43 | 1016.3 |
| 20260504172539 | 18 | 211 | 6.4 | 17.7 | 0.00 | 0.00 | 0.00 | 41 | 1016.3 |
| 20260504172037 | 18 | 138 | 6.4 | 20.9 | 0.00 | 0.00 | 0.00 | 42 | 1016.2 |
| 20260504171537 | 18 | 234 | 6.4 | 20.9 | 0.00 | 0.00 | 0.00 | 41 | 1016.4 |
| 20260504171037 | 18 | 72 | 6.4 | 20.9 | 0.00 | 0.00 | 0.00 | 40 | 1016.5 |
| 20260504170534 | 18 | 203 | 8.0 | 22.5 | 0.00 | 0.00 | 0.00 | 40 | 1016.5 |
| 20260504151020 | 12 | 255 | 8.0 | 17.7 | 0.00 | 0.00 | 0.00 | 55 | 1018.7 |
| 20260504150519 | 12 | 324 | 4.8 | 22.5 | 0.00 | 0.00 | 0.00 | 56 | 1019.0 |
| 20260504141012 | 13 | 8 | 9.7 | 30.6 | 0.00 | 0.00 | 0.00 | 50 | 1018.5 |
| 20260504140511 | 13 | 316 | 12.9 | 30.6 | 0.00 | 0.00 | 0.00 | 50 | 1018.5 |
| 20260504130507 | 13 | 247 | 0.0 | 3.2 | 0.00 | 0.00 | 0.00 | 49 | 1017.9 |
| 20260504110549 | 6 | 3 | 1.6 | 6.4 | 0.00 | 0.00 | 0.00 | 70 | 1017.9 |
| 20260504100546 | 8 | 320 | 0.0 | 3.2 | 0.00 | 0.00 | 0.00 | 64 | 1017.6 |
| 20260504081544 | 2 | 236 | 0.0 | 4.8 | 0.00 | 0.00 | 0.00 | 80 | 1017.6 |
| 20260504081031 | 2 | 88 | 0.0 | 4.8 | 0.00 | 0.00 | 0.00 | 79 | 1017.6 |
| 20260504080530 | 2 | 106 | 0.0 | 3.2 | 0.00 | 0.00 | 0.00 | 78 | 1017.6 |
| 20260504050506 | 5 | 120 | 0.0 | 1.6 | 0.00 | 0.00 | 0.00 | 64 | 1018.4 |
| 20260504050013 | 5 | 119 | 0.0 | 1.6 | 0.00 | 0.00 | 0.00 | 65 | 1018.4 |
| 20260504045505 | 5 | 119 | 0.0 | 1.6 | 0.00 | 0.00 | 0.00 | 65 | 1018.4 |